TimeCST,TemperatureF,Dew PointF,Humidity,Sea Level PressureIn,VisibilityMPH,Wind Direction,Wind SpeedMPH,Gust SpeedMPH,PrecipitationIn,Events,Conditions,WindDirDegrees,DateUTC
12:53 AM,39.9,34.0,79,30.12,10.0,Calm,Calm,-,N/A,,Partly Cloudy,0,2013-11-15 06:53:00
1:53 AM,41.0,36.0,82,30.12,10.0,Calm,Calm,-,N/A,,Scattered Clouds,0,2013-11-15 07:53:00
2:53 AM,43.0,35.1,74,30.13,10.0,Calm,Calm,-,0.00,Rain,Light Rain,0,2013-11-15 08:53:00
3:53 AM,43.0,39.0,86,30.13,10.0,Calm,Calm,-,0.00,Rain,Light Rain,0,2013-11-15 09:53:00
4:53 AM,43.0,39.0,86,30.13,10.0,Calm,Calm,-,0.01,Rain,Light Rain,0,2013-11-15 10:53:00
5:53 AM,44.1,39.9,85,30.12,10.0,East,3.5,-,0.00,,Overcast,80,2013-11-15 11:53:00
6:53 AM,45.0,42.1,90,30.12,10.0,NE,3.5,-,0.00,,Overcast,50,2013-11-15 12:53:00
7:53 AM,46.0,43.0,89,30.11,10.0,East,5.8,-,N/A,,Overcast,100,2013-11-15 13:53:00
8:53 AM,46.9,44.1,90,30.14,10.0,Calm,Calm,-,0.00,Rain,Light Rain,0,2013-11-15 14:53:00
9:53 AM,48.0,45.0,89,30.14,10.0,Calm,Calm,-,0.00,,Overcast,0,2013-11-15 15:53:00
10:41 AM,48.2,46.4,93,30.12,8.0,SE,3.5,-,0.00,,Overcast,140,2013-11-15 16:41:00
10:50 AM,50.0,46.4,87,30.12,10.0,SSE,3.5,-,0.00,,Overcast,160,2013-11-15 16:50:00
10:53 AM,50.0,46.0,86,30.12,10.0,Calm,Calm,-,0.00,,Overcast,0,2013-11-15 16:53:00
11:53 AM,52.0,48.0,86,30.07,10.0,ESE,4.6,-,N/A,,Overcast,110,2013-11-15 17:53:00
12:53 PM,57.0,48.9,74,30.03,10.0,SSE,5.8,-,N/A,,Overcast,160,2013-11-15 18:53:00
1:53 PM,59.0,51.1,75,30.01,10.0,SE,6.9,-,N/A,,Overcast,140,2013-11-15 19:53:00
2:53 PM,60.1,51.1,72,30.00,10.0,SSE,3.5,-,N/A,,Overcast,150,2013-11-15 20:53:00
3:53 PM,60.1,52.0,75,30.00,10.0,ESE,5.8,-,N/A,,Mostly Cloudy,110,2013-11-15 21:53:00
4:53 PM,57.9,52.0,81,29.97,10.0,ESE,5.8,-,N/A,,Mostly Cloudy,110,2013-11-15 22:53:00
5:53 PM,55.9,51.1,84,29.99,10.0,ESE,8.1,-,N/A,,Mostly Cloudy,120,2013-11-15 23:53:00
6:53 PM,53.1,50.0,89,30.01,10.0,ESE,6.9,-,N/A,,Clear,120,2013-11-16 00:53:00
7:53 PM,53.1,50.0,89,30.01,10.0,ESE,6.9,-,N/A,,Mostly Cloudy,120,2013-11-16 01:53:00
8:53 PM,54.0,51.1,90,30.01,10.0,ESE,6.9,-,N/A,,Overcast,120,2013-11-16 02:53:00
9:53 PM,55.0,52.0,89,30.00,10.0,ESE,9.2,-,N/A,,Overcast,120,2013-11-16 03:53:00
10:53 PM,55.9,53.1,90,30.01,10.0,SSE,9.2,-,N/A,,Overcast,150,2013-11-16 04:53:00
11:53 PM,57.0,54.0,89,30.01,10.0,SSE,9.2,-,N/A,,Overcast,150,2013-11-16 05:53:00